Location: Newark
(48.7667°N, 7.9833°E)
Time: 00:53:01
(UTC+00:00)

ISS - Visible Passes

Search period start: 21 July 2019 00:00
Search period end: 31 July 2019 00:00
Orbit: 409 x 418 km, 51.6° (Epoch: 20 July)

Date Brightness Start Highest point End Pass type
(mag) Time Alt. Az. Time Alt. Az. Time Alt. Az.
21 Jul -3.2 00:15:31 10° WNW 00:18:01 47° WNW 00:18:01 47° WNW visible
21 Jul -3.8 20:12:24 10° WSW 20:15:45 82° SSE 20:19:05 10° ENE visible
21 Jul -2.9 21:49:20 10° W 21:52:36 49° N 21:55:52 10° ENE visible
21 Jul -3.6 23:26:12 10° WNW 23:29:24 72° N 23:29:24 72° N visible
22 Jul -3.0 20:59:54 10° W 21:03:11 54° N 21:06:29 10° ENE visible
22 Jul -3.3 22:36:51 10° WNW 22:40:09 59° NNE 22:41:10 38° ENE visible
23 Jul -1.2 00:13:37 10° WNW 00:13:58 12° WNW 00:13:58 12° WNW visible
23 Jul -3.3 20:10:27 10° W 20:13:47 63° NNW 20:17:07 10° ENE visible
23 Jul -3.0 21:47:28 10° WNW 21:50:44 52° N 21:53:07 17° E visible
23 Jul -2.2 23:24:13 10° WNW 23:25:55 27° W 23:25:55 27° W visible
24 Jul -2.9 20:58:02 10° WNW 21:01:19 49° N 21:04:34 10° ENE visible
24 Jul -3.8 22:34:50 10° WNW 22:37:57 75° WNW 22:37:57 75° WNW visible
25 Jul -2.9 20:08:35 10° W 20:11:52 50° N 20:15:08 10° ENE visible
25 Jul -3.6 21:45:28 10° WNW 21:48:48 69° NNE 21:50:01 35° E visible
25 Jul -1.2 23:22:19 10° W 23:22:49 13° W 23:22:49 13° W visible
26 Jul -3.2 20:56:04 10° WNW 20:59:23 57° N 21:02:08 14° E visible
26 Jul -2.5 22:32:49 10° WNW 22:34:57 32° W 22:34:57 32° W visible
27 Jul -3.0 20:06:38 10° WNW 20:09:55 51° N 20:13:12 10° E visible
27 Jul -3.9 21:43:23 10° WNW 21:46:44 72° SSW 21:47:05 63° SSE visible
28 Jul -3.8 20:53:59 10° WNW 20:57:21 83° NNE 20:59:16 23° ESE visible
28 Jul -1.5 22:31:00 10° W 22:32:05 16° W 22:32:05 16° W visible
29 Jul -3.4 20:04:34 10° WNW 20:07:53 65° NNE 20:11:13 10° E visible
29 Jul -2.9 21:41:23 10° W 21:44:16 35° SW 21:44:16 35° SW visible
30 Jul -3.5 20:51:52 10° WNW 20:55:09 54° SSW 20:56:30 30° SE visible
